Weather History for Kota Kinabalu, Malaysia

Change the Weather History Date:

Wednesday, July 4, 2012

  Actual Average Record
Temperature  
Mean Temperature 84 °F -  
Max Temperature 92 °F 88 °F - ()
Min Temperature 75 °F 74 °F - ()
Cooling Degree Days 18    
Growing Degree Days 34 (Base 50)    
Moisture  
Dew Point 77 °F    
Average Humidity 87    
Maximum Humidity 100    
Minimum Humidity 65    
Precipitation  
Precipitation 1.42 in 0.34 in - ()
Sea Level Pressure  
Sea Level Pressure 29.70 in    
Wind  
Wind Speed 5 mph ()    
Max Wind Speed 10 mph    
Max Gust Speed -    
Visibility 5.5 miles    
Events Rain , Thunderstorm    
T = Trace of Precipitation, MM = Missing Value Source: Averaged Metar Reports

Daily Weather History Graph

Daily Weather History Graph

Search for Another Location

Airport:

Trip Planner

Search our weather history database for the weather conditions in past years. The results will help you decide how hot, cold, wet, or windy it might be!

Date:

Astronomy

Jul. 04, 2012 Rise Set
Actual Time 6:06 AM MYT 6:33 PM MYT
Civil Twilight 5:43 AM MYT 6:56 PM MYT
Nautical Twilight 5:17 AM MYT 7:23 PM MYT
Astronomical Twilight 4:50 AM MYT 7:49 PM MYT
Moon 7:05 PM MYT (7/4) 6:18 AM MYT (7/4)
Length of Visible Light 13h 12m
Length of Day
12h 27m
Full, 100% of the Moon is Illuminated
Jul 4
Full
Jul 11
Last Quarter
Jul 19
New
Jul 26
First Quarter
Aug 2
Full

Hourly Weather History & Observations

Time (MYT) Temp. Heat Index Dew Point Humidity Pressure Visibility Wind Dir Wind Speed Gust Speed Precip Events Conditions
12:00 AM 80.6 °F 86.2 °F 75.2 °F 84% 29.71 in 6.2 mi ESE 5.8 mph - N/A   Mostly Cloudy
12:30 AM 80.6 °F 85.4 °F 73.4 °F 79% 29.71 in 6.2 mi ESE 5.8 mph - N/A   Mostly Cloudy
1:00 AM 80.6 °F 85.4 °F 73.4 °F 79% 29.68 in 6.2 mi ESE 5.8 mph - N/A   Mostly Cloudy
1:30 AM 78.8 °F - 77.0 °F 94% 29.68 in 5.6 mi WNW 5.8 mph - N/A Rain Light Rain
2:00 AM 75 °F - 74 °F 98% 29.71 in 2 mi NNE 4.6 mph - - Rain , Thunderstorm Thunderstorms and Rain
2:00 AM 75.2 °F - 75.2 °F 100% 29.71 in 2.5 mi NNE 4.6 mph - N/A Rain , Thunderstorm Heavy Thunderstorms and Rain
2:30 AM 75.2 °F - 75.2 °F 100% 29.71 in 6.2 mi NNE 3.5 mph - N/A Rain , Thunderstorm Light Thunderstorms and Rain
3:00 AM 77.0 °F - 77.0 °F 100% 29.71 in 3.1 mi SSE 3.5 mph - N/A Rain , Thunderstorm Thunderstorms and Rain
3:30 AM 77.0 °F - 75.2 °F 94% 29.71 in 3.1 mi SSE 10.4 mph - N/A Rain , Thunderstorm Thunderstorms and Rain
4:00 AM 75.2 °F - 73.4 °F 94% 29.68 in 3.1 mi SE 6.9 mph - N/A Rain Rain
4:30 AM 75.2 °F - 75.2 °F 100% 29.68 in 3.1 mi ESE 3.5 mph - N/A Rain Rain
5:00 AM 76 °F - 75 °F 96% 29.70 in 3 mi ESE 4.6 mph - - Rain Rain
5:00 AM 75.2 °F - 75.2 °F 100% 29.68 in 3.1 mi ESE 4.6 mph - N/A Rain Rain
5:30 AM 75.2 °F - 75.2 °F 100% 29.65 in 4.3 mi ESE 4.6 mph - N/A Rain Light Rain
6:00 AM 77.0 °F - 75.2 °F 94% 29.65 in 6.2 mi East 2.3 mph - N/A   Overcast
6:30 AM 77.0 °F - 75.2 °F 94% 29.68 in 6.2 mi ESE 5.8 mph - N/A   Overcast
7:00 AM 77.0 °F - 75.2 °F 94% 29.68 in 6.2 mi ESE 4.6 mph - N/A   Overcast
7:30 AM 77.0 °F - 75.2 °F 94% 29.68 in 6.2 mi ESE 2.3 mph - N/A   Overcast
8:00 AM 80 °F - 77 °F 86% 29.72 in 14 mi East 3.5 mph - -   Haze
8:00 AM 80.6 °F 87.1 °F 77.0 °F 89% 29.71 in 6.2 mi East 3.5 mph - N/A   Overcast
8:30 AM 82.4 °F 90.9 °F 77.0 °F 84% 29.71 in 6.2 mi SSE 2.3 mph - N/A   Mostly Cloudy
9:00 AM 84.2 °F 94.1 °F 77.0 °F 79% 29.71 in 6.2 mi ESE 1.2 mph - N/A   Mostly Cloudy
9:30 AM 86.0 °F 99.3 °F 78.8 °F 79% 29.71 in 6.2 mi SSE 2.3 mph - N/A   Mostly Cloudy
10:00 AM 86.0 °F 96.9 °F 77.0 °F 74% 29.71 in 6.2 mi WSW 4.6 mph - N/A   Mostly Cloudy
10:30 AM 87.8 °F 102.5 °F 78.8 °F 75% 29.71 in 6.2 mi WSW 6.9 mph - N/A   Mostly Cloudy
11:00 AM 89 °F - 80 °F 70% 29.72 in 12 mi WSW 6.9 mph - -   Haze
11:00 AM 89.6 °F 108.2 °F 80.6 °F 75% 29.71 in 6.2 mi WSW 6.9 mph - N/A   Mostly Cloudy
11:30 AM 89.6 °F 108.2 °F 80.6 °F 75% 29.71 in 6.2 mi WSW 6.9 mph - N/A   Mostly Cloudy
12:00 PM 89.6 °F 104.7 °F 78.8 °F 70% 29.68 in 6.2 mi WSW 6.9 mph - N/A   Mostly Cloudy
12:30 PM 89.6 °F 108.2 °F 80.6 °F 75% 29.68 in 6.2 mi West 6.9 mph - N/A   Mostly Cloudy
1:00 PM 91.4 °F 111.0 °F 80.6 °F 71% 29.68 in 6.2 mi West 6.9 mph - N/A   Mostly Cloudy
1:30 PM 89.6 °F 108.2 °F 80.6 °F 75% 29.65 in 6.2 mi West 8.1 mph - N/A   Mostly Cloudy
2:00 PM 91 °F - 81 °F 65% 29.66 in 12 mi West 6.9 mph - -   Haze
2:00 PM 91.4 °F 111.0 °F 80.6 °F 71% 29.65 in 6.2 mi West 6.9 mph - N/A   Mostly Cloudy
2:30 PM 91.4 °F 114.3 °F 82.4 °F 75% 29.62 in 6.2 mi West 5.8 mph - N/A   Mostly Cloudy
3:00 PM 91.4 °F 114.3 °F 82.4 °F 75% 29.62 in 6.2 mi West 6.9 mph - N/A   Mostly Cloudy
3:30 PM 87.8 °F 102.5 °F 78.8 °F 75% 29.62 in 6.2 mi WNW 6.9 mph - N/A   Mostly Cloudy
4:00 PM 87.8 °F 104.9 °F 80.6 °F 79% 29.62 in 6.2 mi West 5.8 mph - N/A Thunderstorm Thunderstorm
4:30 PM 86.0 °F 99.3 °F 78.8 °F 79% 29.65 in 6.2 mi WNW 4.6 mph - N/A Rain , Thunderstorm Light Thunderstorms and Rain
5:00 PM 85 °F - 79 °F 77% 29.67 in 10 mi West 3.5 mph - - Rain , Thunderstorm Thunderstorms and Rain
5:00 PM 86.0 °F 99.3 °F 78.8 °F 79% 29.65 in 6.2 mi West 3.5 mph - N/A Rain , Thunderstorm Light Thunderstorms and Rain
5:30 PM 80.6 °F 87.1 °F 77.0 °F 89% 29.65 in 6.2 mi East 6.9 mph - N/A Rain , Thunderstorm Light Thunderstorms and Rain
6:00 PM 80.6 °F 87.1 °F 77.0 °F 89% 29.65 in 6.2 mi East 3.5 mph - N/A   Mostly Cloudy
6:30 PM 80.6 °F 87.1 °F 77.0 °F 89% 29.68 in 6.2 mi ESE 5.8 mph - N/A Rain Light Rain
7:00 PM 78.8 °F - 77.0 °F 94% 29.68 in 3.7 mi SSE 8.1 mph - N/A Rain , Thunderstorm Heavy Thunderstorms and Rain
7:30 PM 77.0 °F - 75.2 °F 94% 29.71 in 2.2 mi SSE 10.4 mph - N/A Rain , Thunderstorm Heavy Thunderstorms and Rain
8:00 PM 75 °F - 75 °F 100% 29.76 in 0 mi SW 4.6 mph - - Rain , Thunderstorm Thunderstorms and Rain
8:00 PM 75.2 °F - 75.2 °F 100% 29.74 in 0.5 mi SW 4.6 mph - N/A Rain , Thunderstorm Heavy Thunderstorms and Rain
8:30 PM 75.2 °F - 75.2 °F 100% 29.77 in 2.2 mi South 6.9 mph - N/A Rain Heavy Rain
9:00 PM 75.2 °F - 75.2 °F 100% 29.74 in 2.8 mi SSE 5.8 mph - N/A Rain Heavy Rain
9:30 PM 75.2 °F - 75.2 °F 100% 29.74 in 4.3 mi SE 8.1 mph - N/A Rain Rain
10:00 PM 75.2 °F - 75.2 °F 100% 29.77 in 4.3 mi ESE 4.6 mph - N/A Rain Rain
10:30 PM 75.2 °F - 75.2 °F 100% 29.77 in 5.0 mi East 5.8 mph - N/A Rain Light Rain
11:00 PM 76 °F - 74 °F 92% 29.79 in 6 mi East 6.9 mph - - Rain Light Rain
11:00 PM 75.2 °F - 73.4 °F 94% 29.77 in 6.2 mi East 6.9 mph - N/A Rain Light Rain
11:30 PM 75.2 °F - 75.2 °F 100% 29.77 in 6.2 mi ESE 4.6 mph - N/A Rain Light Rain